Terminal Aerodrome Forecast
Issued by NWS Portland, OR

Home | Current Version | Previous Version | Text Only | Print | Product List | Glossary On
Versions: 1 2 3 4 5 6 7 8 9 10 11 12 13 14 15 16 17 18 19 20 21 22 23 24 25 26 27 28 29 30 31 32 33 34 35 36 37 38 39
000
FTUS46 KPQR 210540
TAFSLE
TAF
KSLE 210540Z 2106/2206 19015G25KT P6SM -RA BKN018 OVC050
     FM211200 19013KT 5SM -RA BR BKN020 OVC050
     FM211800 21011KT P6SM -SHRA BKN030 OVC050=

USA.gov is the U.S. government's official web portal to all federal, state and local government web resources and services.